Vertical_Velocity
-1 -1 -1 -1 -0 -0 -1 0 2 -1 -2 -1 -1 0 1 2 0 0 -0 -0 -1 -0 -0 1 1 1 0 0 -0 0 -0 -0 -0
-0 0 -0 -0 -1 -1 -0 1 -0 -0 -0 -0 -1 -0 0 2 2 1 -1 -0 2 -1 -0 -1 -0 -0 0 0 1 1 0 -0 -1
-2 -2 -2 -2 -2 -3 -3 -3 -2 -3 -1 -1 -1 0 0 0 2 2 1 -0 -1 2 -1 -1 0 -0 -0 -0 -0 -0 1 1 0
-0 0 -0 1 1 1 0 1 2 1 1 1 0 0 -2 -1 0 1 3 -1 1 -1 1 0 -0 -0 0 0 -0 -0 -1 -0 -0
0 0 -1 -1 -0 -0 0 0 1 0 0 0 2 2 -3 3 -1 -0 2 0 -0 1 -0 1 0 -1 -0 0 -0 -0 -1 -0 -0
-1 1 0 0 0 -1 -2 -1 -3 -2 -1 -0 -1 -1 1 -0 1 -2 2 0 0 1 1 0 0 0 -0 -1 -0 0 -0 -1 -0
-1 -1 -0 -0 -0 -1 -1 -0 1 0 0 0 0 -0 -0 0 1 -1 -2 1 5 0 2 0 2 1 1 1 0 -0 1 -0 0
-1 -0 0 1 1 1 -0 -2 -2 -1 -0 -1 0 -2 -2 1 2 0 -2 0 4 4 0 2 2 2 0 0 0 -1 -0 -0 0
-3 -1 0 -1 -3 0 1 -1 -2 -2 -3 -1 -2 -1 -0 -2 -2 4 0 2 2 2 2 -1 4 3 1 1 1 0 -0 -1 0
-1 -1 -2 -0 -2 -1 -1 -2 -1 -1 -1 -3 -1 -0 -3 0 1 -1 -0 -1 -0 3 4 1 2 2 1 0 -1 -0 0 0 1
-2 0 0 1 2 -1 -1 -2 -2 -4 -1 -1 -3 -5 -6 -1 -0 3 4 5 -1 3 5 3 1 3 3 0 -0 -1 -1 -1 0
0 1 -0 -1 -2 -3 -3 -5 -2 -1 0 1 -0 -9 -6 -1 7 11 7 9 5 0 6 1 2 3 -2 -0 -1 -1 -1 -1 -1
-0 0 -1 -2 -3 -5 -4 0 -3 -1 -2 1 -2 -6 3 8 10 7 7 6 7 5 3 5 -17 21 2 1 0 0 -0 -1 -1
-2 -0 -3 -2 -2 0 -1 -6 4 1 -2 0 4 -3 -4 -0 6 4 3 4 6 2 1 -1 -6 53 4 1 -2 -2 -3 1 4
1 -0 -1 -2 -0 -2 -1 -2 -10 1 -2 1 5 -4 -1 0 1 -2 -0 5 4 2 -1 -3 2 6 5 -8 141 -1 1 5 2
0 -1 -0 -1 -2 0 -0 -1 -1 2 -4 3 -8 -7 -4 -3 2 1 1 -0 1 3 0 -2 -4 -4 10 -5 -11 70 -1 22 -1
-0 -1 -1 -1 -4 -2 -3 1 -2 -7 -1 1 -6 -3 -5 -2 5 3 -4 -0 -3 -0 1 5 5 1 13 33 -7 -2 -4 20 77
-1 -0 -3 -3 -0 -1 -3 -2 0 -1 -6 -3 -1 1 -1 -5 -1 -1 0 -1 -6 -0 6 -2 -7 6 13 19 12 38 5 -6 6
-1 -2 -1 -0 -2 -0 0 -1 -3 -1 -2 -4 -3 -2 1 -4 -3 0 -3 -3 -2 -1 1 -3 -6 -7 -2 -16 -5 -5 -7 2 1
-3 -1 -1 1 -1 1 0 -3 -0 -1 -2 -1 -2 -4 -0 -0 -3 -2 -4 -10 -10 -8 -4 -2 -5 2 5 1 -5 -8 -4 -13 -1
Height
5842 5841 5839 5837 5836 5835 5834 5832 5831 5830 5829 5829 5828 5828 5828 5829 5829 5828 5828 5829 5830 5830 5830 5830 5831 5832 5833 5834 5835 5835 5837 5837 5838
5837 5836 5834 5832 5831 5829 5828 5827 5825 5824 5823 5823 5822 5821 5821 5822 5822 5822 5822 5822 5823 5824 5825 5826 5826 5826 5827 5829 5830 5831 5832 5833 5834
5832 5830 5828 5826 5824 5823 5821 5820 5819 5818 5817 5816 5815 5814 5814 5814 5815 5816 5816 5815 5816 5817 5818 5819 5821 5821 5822 5823 5824 5826 5827 5828 5829
5825 5823 5821 5819 5817 5815 5814 5812 5811 5810 5809 5808 5807 5806 5806 5806 5807 5808 5809 5808 5808 5810 5810 5811 5813 5815 5817 5818 5819 5820 5822 5823 5824
5818 5816 5814 5812 5810 5808 5806 5805 5804 5802 5801 5800 5799 5798 5797 5797 5798 5799 5800 5800 5800 5801 5802 5804 5805 5807 5810 5812 5813 5814 5816 5817 5819
5811 5809 5807 5805 5803 5802 5800 5798 5797 5796 5793 5792 5790 5788 5788 5787 5788 5788 5789 5791 5792 5792 5794 5796 5797 5799 5801 5804 5806 5808 5810 5812 5814
5804 5803 5801 5800 5798 5796 5794 5792 5790 5789 5787 5784 5782 5779 5777 5777 5776 5777 5777 5779 5781 5782 5784 5786 5789 5791 5793 5795 5798 5801 5803 5806 5808
5799 5797 5795 5794 5792 5790 5789 5787 5785 5782 5780 5777 5774 5771 5768 5766 5765 5765 5765 5767 5768 5771 5773 5777 5779 5782 5785 5787 5790 5792 5796 5799 5802
5795 5793 5791 5789 5788 5785 5784 5781 5778 5775 5771 5767 5763 5759 5755 5752 5751 5751 5751 5753 5754 5758 5762 5765 5770 5773 5776 5779 5782 5784 5788 5791 5794
5791 5789 5787 5785 5783 5780 5777 5774 5771 5767 5763 5758 5752 5746 5740 5735 5731 5731 5733 5737 5739 5744 5749 5753 5758 5763 5767 5771 5774 5777 5779 5782 5785
5787 5785 5783 5781 5778 5775 5771 5768 5763 5758 5751 5743 5734 5726 5717 5708 5703 5704 5709 5717 5724 5729 5735 5742 5748 5753 5758 5762 5765 5769 5771 5774 5777
5783 5781 5779 5776 5774 5770 5766 5761 5754 5746 5736 5725 5712 5700 5684 5673 5668 5672 5681 5693 5704 5713 5721 5731 5737 5744 5749 5754 5757 5760 5763 5766 5769
5779 5777 5775 5772 5770 5765 5758 5752 5744 5734 5722 5707 5689 5668 5646 5632 5634 5642 5654 5669 5684 5697 5707 5719 5728 5732 5741 5745 5748 5752 5755 5758 5761
5776 5773 5770 5767 5764 5758 5752 5743 5736 5726 5710 5691 5668 5642 5616 5606 5610 5621 5633 5649 5668 5684 5695 5706 5717 5717 5728 5737 5740 5744 5747 5750 5753
5771 5769 5765 5762 5758 5752 5745 5736 5727 5716 5700 5680 5653 5624 5603 5595 5597 5608 5619 5636 5655 5672 5685 5695 5704 5710 5718 5729 5720 5735 5739 5739 5742
5766 5763 5760 5756 5752 5746 5739 5731 5720 5709 5692 5672 5645 5618 5602 5593 5596 5604 5614 5630 5648 5664 5677 5688 5697 5707 5712 5718 5724 5717 5727 5727 5734
5760 5758 5754 5750 5745 5740 5733 5725 5715 5703 5690 5671 5647 5624 5611 5604 5604 5608 5616 5628 5643 5659 5672 5679 5689 5699 5700 5704 5707 5712 5721 5721 5721
5755 5752 5749 5745 5740 5734 5728 5720 5711 5700 5688 5673 5653 5633 5620 5614 5611 5613 5619 5631 5645 5658 5668 5678 5683 5691 5697 5695 5697 5703 5709 5711 5716
5750 5747 5743 5739 5734 5729 5723 5715 5707 5698 5688 5676 5660 5642 5630 5623 5620 5619 5625 5638 5651 5662 5672 5678 5683 5687 5691 5693 5697 5698 5702 5704 5708
5744 5740 5737 5733 5728 5723 5717 5710 5703 5696 5688 5679 5667 5654 5642 5634 5630 5631 5636 5645 5657 5665 5671 5677 5681 5684 5686 5690 5690 5693 5697 5697 5698